[[[{"header":{"parameterUnit":"kt","parameterCategory":2,"dx":1,"dy":1,"la1":30.253999710083008,"la2":30.299108505249023,"lo1":-89.0895004272461,"lo2":-89.04439544677734,"nx":28,"ny":28,"refTime":"2022-09-24T21:00:00:Z","depth":0,"parameterNumber":1,"parameterNumberName":"U-component_of_WINDS"},"data":[-2.8319,-2.8419,-2.8432,-2.8554,-2.8586,-2.8672,-2.8706,-2.8753,-2.8794,-2.8899,-2.8961,-2.8986,-2.9033,-2.9112,-2.9181,-2.9191,-2.922,-2.9246,-2.9253,-2.9122,-2.9105,-2.9089,-2.9066,-2.9251,-2.9252,-2.9386,-2.9387,-2.9388,-2.8223,-2.8256,-2.8323,-2.8398,-2.8456,-2.8439,-2.8497,-2.8548,-2.8625,-2.8676,-2.8738,-2.8832,-2.8908,-2.8947,-2.9022,-2.9071,-2.9068,-2.9091,-2.9088,-2.9096,-2.8957,-2.8932,-2.9092,-2.9092,-2.9092,-2.9092,-2.9092,-2.9092,-2.8052,-2.8112,-2.8164,-2.8238,-2.8279,-2.8329,-2.8389,-2.8417,-2.8484,-2.8563,-2.8566,-2.8654,-2.8709,-2.8806,-2.8843,-2.8913,-2.889,-2.892,-2.8928,-2.8935,-2.8942,-2.8748,-2.8926,-2.8926,-2.8925,-2.8925,-2.8925,0,-2.7932,-2.7938,-2.8004,-2.8074,-2.8128,-2.8184,-2.8237,-2.8274,-2.8294,-2.8348,-2.8429,-2.8478,-2.8575,-2.8653,-2.8727,-2.8759,-2.8748,-2.8748,-2.8769,-2.8769,-2.876,-2.8767,-2.8541,-2.8743,-2.8742,-2.8741,-2.874,-2.8739,-2.7762,-2.7829,-2.789,-2.7934,-2.7966,-2.8038,-2.8084,-2.8095,-2.8144,-2.8211,-2.8264,-2.8342,-2.8405,-2.8533,-2.8566,-2.8639,-2.8635,-2.8711,-2.8646,-2.8643,-2.8638,-2.8634,-2.8641,-2.8723,-2.8725,-2.8727,-2.8728,0,-2.7665,-2.7685,-2.7794,-2.7848,-2.7863,-2.7934,-2.7981,-2.8041,-2.8061,-2.8148,-2.8169,-2.8202,-2.8281,-2.8302,-2.8397,-2.8405,-2.8525,-2.8518,-2.8506,-2.8506,-2.8577,-2.8571,-2.8801,-2.8833,-2.8639,-2.8641,-2.8643,0,-2.7528,-2.7617,-2.7642,-2.7704,-2.7803,-2.7812,-2.7911,-2.7938,-2.7983,-2.8051,-2.8041,-2.8105,-2.8121,-2.8189,-2.8202,-2.8303,-2.8321,-2.8334,-2.8336,-2.8335,-2.8334,-2.8362,-2.8353,-2.8338,-2.8336,-2.8335,-2.8334,0,-2.7376,-2.7492,-2.7593,-2.7623,-2.7689,-2.7737,-2.7767,-2.7818,-2.7863,-2.7924,-2.7953,-2.8024,-2.8064,-2.8119,-2.8135,-2.809,-2.8259,-2.82,-2.8272,-2.8272,-2.8309,-2.8306,-2.8505,-2.8333,-2.8333,-2.8332,-2.8332,0,-2.7269,-2.7329,-2.7472,-2.7527,-2.7557,-2.7624,-2.7693,-2.7755,-2.781,-2.7821,-2.787,-2.7866,-2.7954,-2.7895,-2.8019,-2.7956,-2.7996,-2.8016,-2.8022,-2.8032,-2.7965,-2.8075,-2.8261,-2.8282,-2.804,-2.8038,-2.8036,0,-2.7089,-2.7238,-2.7246,-2.7382,-2.7454,-2.7437,-2.7511,-2.7559,-2.7581,-2.7646,-2.767,-2.7744,-2.7704,-2.773,-2.7788,-2.7817,-2.7898,-2.7806,-2.7902,-2.7905,-2.7889,-2.806,-2.8083,-2.8218,-2.8005,-2.8008,-2.801,0,-2.6952,-2.703,-2.7054,-2.7088,-2.7152,-2.7212,-2.7298,-2.7372,-2.7415,-2.747,-2.7542,-2.7646,-2.7621,-2.7664,-2.7668,-2.7727,-2.7844,-2.7692,-2.7693,-2.7719,-2.799,-2.8012,-2.8035,-2.7833,-2.7837,-2.784,-2.7986,0,-2.6788,-2.6864,-2.6928,-2.7004,-2.7053,-2.7139,-2.7159,-2.7208,-2.7206,-2.7227,-2.7333,-2.7378,-2.7455,-2.7485,-2.7484,-2.7614,-2.7595,-2.7567,-2.7512,-2.7623,-2.7672,-2.7692,-2.7437,-2.7436,-2.7435,-2.7434,0,0,-2.6611,-2.6721,-2.6727,-2.6809,-2.6851,-2.6831,-2.6921,-2.696,-2.7038,-2.7068,-2.7037,-2.719,-2.7228,-2.7356,-2.7392,-2.7423,-2.7448,-2.7408,-2.757,-2.7585,-2.7599,-2.7651,-2.7671,-2.7431,-2.7431,-2.743,-2.743,0,-2.6555,-2.6592,-2.668,-2.672,-2.6779,-2.6796,-2.6817,-2.6872,-2.6889,-2.6993,-2.6976,-2.7043,-2.7164,-2.7207,-2.7245,-2.7393,-2.7377,-2.7415,-2.7488,-2.7556,-2.7573,-2.7588,-2.7642,-2.7661,-2.7427,-2.7427,-2.7427,0,-2.6425,-2.6464,-2.6508,-2.6601,-2.664,-2.6714,-2.666,-2.674,-2.6795,-2.677,-2.6873,-2.6901,-2.696,-2.7077,-2.713,-2.7104,-2.7311,-2.7249,-2.7257,-2.7264,-2.7331,-2.7351,-2.7369,-2.7133,-2.7132,-2.7131,0,0,-2.6374,-2.6444,-2.649,-2.659,-2.6616,-2.6642,-2.6683,-2.6685,-2.6737,-2.6758,-2.6793,-2.6845,-2.6916,-2.6962,-2.703,-2.7155,-2.7169,-2.7212,-2.7226,-2.7237,-2.7249,-2.7319,-2.7339,-2.7127,-2.7127,-2.7126,0,0,-2.6349,-2.6406,-2.6395,-2.6513,-2.6563,-2.6615,-2.6676,-2.6663,-2.6726,-2.6718,-2.6726,-2.674,-2.685,-2.6878,-2.682,-2.701,-2.6955,-2.6969,-2.6988,-2.7006,-2.7019,-2.7011,-2.6771,0,0,0,0,0,-2.6302,-2.6399,-2.6388,-2.641,-2.6528,-2.6621,-2.6636,-2.6644,-2.6605,-2.6653,-2.6681,-2.666,-2.6848,-2.6797,-2.682,-2.6885,-2.7073,-2.7082,-2.7091,-2.7145,-2.7164,-2.7179,0,0,0,0,0,0,-2.6311,-2.6338,-2.6385,-2.6442,-2.6468,-2.6618,-2.6553,-2.6558,-2.66,-2.6595,-2.6655,-2.6662,-2.6671,-2.6785,-2.6806,-2.6868,-2.6764,-2.7076,-2.7085,-2.7092,-2.7151,-2.7166,-2.7179,0,0,0,0,0,-2.6318,-2.634,-2.6525,-2.644,-2.6463,-2.6498,-2.6549,-2.6553,-2.6586,-2.6628,-2.6634,-2.6588,-2.6673,-2.6691,-2.6798,-2.6858,-2.675,-2.6758,-2.7082,-2.7088,-2.7094,-2.7159,0,0,0,0,0,0,-2.6323,-2.6344,-2.653,-2.6537,-2.6404,-2.6489,-2.6503,-2.6549,-2.6616,-2.6623,-2.656,-2.6555,-2.6675,-2.6689,-2.6703,-2.6855,-2.6738,-2.6746,-2.6751,-2.7087,-2.7092,-2.7096,0,0,0,0,0,0,-2.6333,-2.6351,-2.6534,-2.6487,-2.6489,-2.6482,-2.6494,-2.6586,-2.6618,-2.6545,-2.6543,-2.6557,-2.6655,-2.6688,-2.6698,-2.6842,-2.673,-2.6737,-2.6742,-2.6745,-2.7091,-2.7095,0,0,0,0,0,0,-2.634,-2.6356,-2.6485,-2.6487,-2.6488,-2.6571,-2.6563,-2.6683,-2.6576,-2.6542,-2.6567,-2.6563,-2.6654,-2.6665,-2.6696,-2.6834,-2.684,-2.673,-2.6735,-2.6739,-2.6741,0,0,0,0,0,0,0,-2.6347,-2.6239,-2.6486,-2.6487,-2.6488,-2.6605,-2.6607,-2.6609,-2.6575,-2.6572,-2.6568,-2.6565,-2.6687,-2.6695,-2.6704,-2.6829,0,0,-2.6729,-2.6733,0,0,0,0,0,0,0,0,-2.6233,-2.6238,-2.6487,-2.6488,-2.649,-2.6606,-2.6607,-2.6609,-2.6575,-2.6572,-2.6569,-2.6566,-2.6689,-2.6696,-2.6703,0,0,0,0,0,0,0,0,0,0,0,0,0,0,0,-2.6487,-2.6488,0,-2.6606,-2.6607,-2.6608,-2.6574,-2.6572,-2.6569,-2.6567,-2.6691,-2.6697,-2.6702,0,0,0,0,0,0,0,0,0,0,0,0,0,0,0,0,0,0,0,0,0,0,0,0,0,0,0,0,0,0,0,0,0,0,0,0,0,0,0,0,0,0,0,0,0,0,0,0,0,0,0,0,0,0,0,0,0,0,0,0,0,0,0,0,0,0,0,0,0]}],[{"header":{"parameterUnit":"kt","parameterCategory":2,"dx":1,"dy":1,"la1":30.253999710083008,"la2":30.299108505249023,"lo1":-89.0895004272461,"lo2":-89.04439544677734,"nx":28,"ny":28,"refTime":"2022-09-24T21:00:00:Z","depth":0,"parameterNumber":2,"parameterNumberName":"V-component_of_WINDS"},"data":[6.8477,6.8559,6.8566,6.8661,6.8683,6.8747,6.8772,6.8804,6.883,6.8905,6.8949,6.8962,6.8987,6.9039,6.9084,6.9088,6.9104,6.9129,6.9128,6.9018,6.9002,6.8988,6.8968,6.9134,6.9134,6.924,6.9241,6.9242,6.8393,6.8416,6.847,6.8525,6.8569,6.855,6.8591,6.8628,6.8686,6.8719,6.8763,6.8829,6.8881,6.8899,6.8948,6.8983,6.8974,6.8995,6.899,6.8994,6.8877,6.8856,6.9001,6.9001,6.9001,6.9001,6.9001,6.9001,6.824,6.829,6.8327,6.8385,6.8415,6.8451,6.8498,6.8513,6.8563,6.8619,6.8615,6.8679,6.8711,6.8773,6.8795,6.8842,6.8819,6.8842,6.8847,6.8852,6.8856,6.8696,6.8852,6.8851,6.8851,6.8851,6.885,0,6.8129,6.8131,6.8183,6.8237,6.8279,6.8321,6.8359,6.8389,6.8392,6.8433,6.8492,6.8526,6.8593,6.8646,6.8694,6.8711,6.8689,6.869,6.8705,6.8705,6.8699,6.8698,6.8503,6.8684,6.8682,6.8681,6.868,6.868,6.7971,6.803,6.8073,6.8108,6.8131,6.8188,6.8223,6.8222,6.8258,6.8304,6.8346,6.8401,6.8445,6.8536,6.8549,6.8598,6.8587,6.8655,6.8594,6.8593,6.8582,6.8577,6.8581,6.8665,6.8667,6.8668,6.867,0,6.7881,6.7891,6.7984,6.802,6.8031,6.8091,6.812,6.8168,6.8177,6.8245,6.826,6.8273,6.8329,6.8332,6.8397,6.8396,6.8488,6.8479,6.8476,6.8472,6.853,6.8523,6.8725,6.875,6.8583,6.8585,6.8586,0,6.7748,6.7825,6.7835,6.7888,6.7973,6.797,6.8053,6.8069,6.8098,6.8151,6.8131,6.818,6.8176,6.8225,6.8224,6.83,6.8314,6.8315,6.8313,6.8315,6.8314,6.8329,6.8318,6.8312,6.8311,6.831,6.8309,0,6.7601,6.7699,6.7786,6.7809,6.7855,6.7895,6.7915,6.7949,6.7982,6.8026,6.8047,6.8098,6.8124,6.8163,6.816,6.8118,6.8255,6.8197,6.8256,6.8256,6.8283,6.828,6.8463,6.8308,6.8308,6.8307,6.8307,0,6.7494,6.7542,6.7669,6.7705,6.773,6.7788,6.7838,6.7889,6.7925,6.7928,6.7963,6.7947,6.8018,6.7959,6.8054,6.8,6.8026,6.8036,6.804,6.8042,6.7974,6.8072,6.8251,6.8267,6.8049,6.8047,6.8045,0,6.7321,6.7452,6.7451,6.7571,6.7631,6.7603,6.7667,6.77,6.7711,6.7761,6.7771,6.7828,6.7785,6.7803,6.785,6.7861,6.7932,6.7853,6.7917,6.7919,6.7904,6.807,6.8093,6.8212,6.8018,6.8021,6.8023,0,6.7187,6.7245,6.7267,6.7292,6.7339,6.7389,6.7463,6.7521,6.7554,6.7595,6.7653,6.7736,6.7705,6.7735,6.7728,6.7777,6.7884,6.7737,6.7738,6.7759,6.8006,6.8027,6.8047,6.7868,6.7871,6.7874,6.8001,0,6.7014,6.7083,6.7144,6.7203,6.7243,6.732,6.7325,6.7366,6.7355,6.7364,6.7452,6.748,6.7536,6.7561,6.7551,6.7665,6.7644,6.7612,6.755,6.7661,6.7702,6.772,6.7488,6.7486,6.7485,6.7484,0,0,6.6843,6.6942,6.6939,6.7012,6.7045,6.7014,6.7095,6.7123,6.7181,6.7203,6.7171,6.729,6.7314,6.7419,6.7454,6.7479,6.7497,6.7459,6.761,6.7624,6.7637,6.7681,6.7699,6.7481,6.7481,6.748,6.748,0,6.678,6.6812,6.6894,6.6925,6.6969,6.6975,6.6995,6.7033,6.7042,6.713,6.71,6.7153,6.725,6.7277,6.7303,6.7448,6.7419,6.7465,6.754,6.7595,6.7611,6.7625,6.7672,6.7689,6.7476,6.7476,6.7476,0,6.6646,6.6676,6.6718,6.6796,6.6824,6.6888,6.6826,6.6897,6.6943,6.6902,6.699,6.7005,6.7043,6.7145,6.719,6.7161,6.7347,6.7291,6.73,6.7303,6.7357,6.7376,6.7393,6.7166,6.7164,6.7163,0,0,6.659,6.6655,6.6686,6.6783,6.6803,6.6813,6.6848,6.684,6.6878,6.6892,6.6911,6.6946,6.7001,6.7038,6.709,6.7202,6.7207,6.7252,6.7267,6.7279,6.7289,6.7345,6.7364,6.7159,6.7159,6.7159,0,0,6.6563,6.6603,6.6586,6.67,6.6738,6.6772,6.6829,6.6808,6.6857,6.6848,6.6836,6.6845,6.694,6.6956,6.6901,6.7067,6.7007,6.7021,6.7053,6.7071,6.7085,6.7077,6.6838,0,0,0,0,0,6.6501,6.6598,6.6583,6.6603,6.6701,6.6781,6.6793,6.6787,6.6745,6.679,6.6802,6.6771,6.6924,6.6874,6.6892,6.6953,6.7106,6.7116,6.7124,6.7192,6.7211,6.7228,0,0,0,0,0,0,6.6508,6.6533,6.658,6.6619,6.6641,6.6777,6.6704,6.6705,6.674,6.6733,6.677,6.6772,6.6767,6.6864,6.6881,6.6938,6.6833,6.711,6.7118,6.7125,6.7199,6.7214,6.7228,0,0,0,0,0,6.6515,6.6534,6.6693,6.6617,6.6636,6.6652,6.67,6.67,6.6727,6.6746,6.6748,6.6719,6.6769,6.6782,6.6874,6.6931,6.6821,6.6827,6.7115,6.7121,6.7127,6.7206,0,0,0,0,0,0,6.6519,6.6534,6.6697,6.6702,6.6581,6.6644,6.6654,6.6696,6.6738,6.6741,6.6694,6.6688,6.6772,6.6781,6.6792,6.6929,6.6812,6.6818,6.6822,6.712,6.7125,6.7129,0,0,0,0,0,0,6.6523,6.6539,6.67,6.6654,6.6654,6.6637,6.6646,6.6723,6.6739,6.6683,6.668,6.6691,6.6755,6.6781,6.6789,6.691,6.6805,6.6811,6.6815,6.6818,6.7124,6.7128,0,0,0,0,0,0,6.653,6.6543,6.6652,6.6652,6.6652,6.6712,6.6704,6.6804,6.6702,6.6682,6.6693,6.6688,6.6756,6.6763,6.6788,6.6905,6.6909,6.6805,6.6809,6.6812,6.6814,0,0,0,0,0,0,0,6.6535,6.6448,6.6665,6.6651,6.6651,6.6752,6.6754,6.6755,6.6702,6.6698,6.6694,6.669,6.677,6.6777,6.6784,6.6901,0,0,6.6804,6.6807,0,0,0,0,0,0,0,0,6.6442,6.6446,6.6665,6.6666,6.6668,6.6753,6.6754,6.6755,6.6701,6.6698,6.6695,6.6692,6.6772,6.6777,6.6783,0,0,0,0,0,0,0,0,0,0,0,0,0,0,0,6.6665,6.6666,0,6.6753,6.6754,6.6755,6.67,6.6698,6.6695,6.6693,6.6774,6.6778,6.6782,0,0,0,0,0,0,0,0,0,0,0,0,0,0,0,0,0,0,0,0,0,0,0,0,0,0,0,0,0,0,0,0,0,0,0,0,0,0,0,0,0,0,0,0,0,0,0,0,0,0,0,0,0,0,0,0,0,0,0,0,0,0,0,0,0,0,0,0,0]}]]]